Weather History for PHOG - December, 2010

Change the Weather History Date:

Tuesday, December 28, 2010

  Actual Average Record
Temperature  
Mean Temperature 76 °F 73 °F  
Max Temperature 83 °F 81 °F 87 °F (1958)
Min Temperature 68 °F 64 °F 55 °F (1967)
Degree Days  
Heating Degree Days 0 0  
Month to date heating degree days 0 0  
Since 1 July heating degree days 0 0  
Cooling Degree Days 11 8  
Month to date cooling degree days 244 239  
Year to date cooling degree days 3947 3946  
Growing Degree Days 26 (Base 50)    
Moisture  
Dew Point 68 °F    
Average Humidity 80    
Maximum Humidity 93    
Minimum Humidity 67    
Precipitation  
Precipitation T in 0.10 in 2.81 in (1969)
Month to date precipitation 3.60 3.05  
Year to date precipitation 9.52 17.53  
Snow  
Snow 0.00 in - - ()
Month to date snowfall 0.0  
Since 1 July snowfall 0.0  
Snow Depth 0.00 in    
Sea Level Pressure  
Sea Level Pressure 30.01 in    
Wind  
Wind Speed 4 mph (ESE)    
Max Wind Speed 9 mph    
Max Gust Speed 12 mph    
Visibility 10 miles    
Events      
T = Trace of Precipitation, MM = Missing Value Source: NWS Daily Summary

Daily Weather History Graph

Daily Weather History Graph

Search for Another Location

Airport or City:

Trip Planner

Search our weather history database for the weather conditions in past years. The results will help you decide how hot, cold, wet, or windy it might be!

Date:

Astronomy

Dec. 28, 2010 Rise Set
Actual Time 7:01 AM HST 5:53 PM HST
Civil Twilight 6:37 AM HST 6:17 PM HST
Nautical Twilight 6:09 AM HST 6:45 PM HST
Astronomical Twilight 5:42 AM HST 7:12 PM HST
Moon 12:41 AM HST (12/28) 12:33 PM HST (12/28)
Length of Visible Light 11h 40m
Length of Day
10h 52m
Last Quarter, 42% of the Moon is Illuminated
Dec 28
Last Quarter
Jan 3
New
Jan 12
First Quarter
Jan 19
Full
Jan 26
Last Quarter

Hourly Weather History & Observations

Time (HST) Temp. Heat Index Dew Point Humidity Pressure Visibility Wind Dir Wind Speed Gust Speed Precip Events Conditions
12:54 AM 73.0 °F - 70.0 °F 90% 30.02 in 7.0 mi Calm Calm - 0.00 in   Scattered Clouds
1:54 AM 72.0 °F - 69.1 °F 91% 30.01 in 8.0 mi Calm Calm - N/A   Clear
2:54 AM 72.0 °F - 68.0 °F 87% 30.01 in 10.0 mi East 3.5 mph - N/A   Clear
3:54 AM 70.0 °F - 66.9 °F 90% 30.00 in 9.0 mi East 4.6 mph - N/A   Clear
4:54 AM 71.1 °F - 68.0 °F 90% 30.01 in 10.0 mi ESE 4.6 mph - N/A   Partly Cloudy
5:54 AM 70.0 °F - 66.9 °F 90% 30.02 in 10.0 mi Calm Calm - N/A   Partly Cloudy
6:54 AM 70.0 °F - 66.0 °F 87% 30.03 in 10.0 mi SSE 3.5 mph - N/A   Clear
7:54 AM 71.1 °F - 66.9 °F 87% 30.04 in 10.0 mi Calm Calm - N/A   Clear
8:54 AM 75.0 °F - 70.0 °F 84% 30.04 in 10.0 mi Calm Calm - N/A   Clear
9:54 AM 78.1 °F - 70.0 °F 76% 30.04 in 9.0 mi NNE 4.6 mph - N/A   Clear
10:54 AM 79.0 °F - 68.0 °F 69% 30.04 in 10.0 mi South 6.9 mph - N/A   Clear
11:54 AM 81.0 °F 83.8 °F 68.0 °F 65% 30.02 in 10.0 mi SSE 4.6 mph - N/A   Scattered Clouds
12:54 PM 81.0 °F 83.8 °F 68.0 °F 65% 29.97 in 10.0 mi East 4.6 mph - N/A   Scattered Clouds
1:54 PM 81.0 °F 83.8 °F 68.0 °F 65% 29.94 in 10.0 mi Variable 4.6 mph - N/A   Partly Cloudy
2:54 PM 81.0 °F 85.1 °F 71.6 °F 73% 29.93 in 10.0 mi NNE 5.8 mph - N/A   Partly Cloudy
3:54 PM 79.0 °F - 66.9 °F 66% 29.95 in 10.0 mi North 6.9 mph - N/A   Clear
4:54 PM 78.1 °F - 68.0 °F 71% 29.97 in 10.0 mi NNW 5.8 mph - N/A   Scattered Clouds
5:54 PM 78.1 °F - 66.9 °F 68% 29.98 in 10.0 mi NNW 4.6 mph - N/A   Mostly Cloudy
6:54 PM 77.0 °F - 69.1 °F 76% 30.01 in 10.0 mi West 4.6 mph - N/A   Partly Cloudy
7:54 PM 75.0 °F - 69.1 °F 82% 30.02 in 10.0 mi Calm Calm - N/A   Clear
8:54 PM 75.9 °F - 69.1 °F 79% 30.03 in 10.0 mi Variable 3.5 mph - N/A   Clear
9:54 PM 73.0 °F - 69.1 °F 87% 30.03 in 10.0 mi SW 3.5 mph - N/A   Clear
10:54 PM 73.0 °F - 69.1 °F 87% 30.01 in 10.0 mi SSE 3.5 mph - N/A   Clear
11:54 PM 72.0 °F - 68.0 °F 87% 30.01 in 10.0 mi SSE 4.6 mph - N/A   Clear